Home   Weather   Whyalla   Past weeks
Flag for Australia

Past Weather in Whyalla, South Australia, Australia — Yesterday and Last 2 Weeks

Now
81 °F

Warm.


Feels Like: 81 °F
Forecast: 65 / 60 °F
Wind: 14 mph from Southwest

Location: Whyalla Airport Aws

Current Time: Mar 24, 2019 at 8:37:11 pm

Latest Report: Mar 24, 2019 at 6:30 pm


Visibility: N/A

Pressure: 29.75 "Hg

Humidity: 45%

Dew Point: 58 °F

Location of WhyallaLocation

Past Weather in Whyalla — Graph

°F

Whyalla Temperature Yesterday

Maximum temperature yesterday: 75 °F (at 12:30 pm)
Minimum temperature yesterday: 68 °F (at 9:30 pm)
Average temperature yesterday: 72 °F

High & Low Weather Summary for the Past Weeks

 TemperatureHumidityPressure
High85 °F (Mar 16, 3:00 pm)93% (Mar 24, 6:00 am)30.08 "Hg (Mar 24, 6:00 am)
Low53 °F (Mar 14, 6:30 am)21% (Mar 16, 3:30 pm)29.73 "Hg (Mar 24, 6:00 pm)
Average70 °F70%29.96 "Hg
* Reported Mar 9 6:30 pm — Mar 24 6:30 pm, Whyalla. Weather by CustomWeather, © 2019

Note: Actual official high and low records may vary slightly from our data, if they occured in-between our weather recording intervals... More about our weather records

Advertising

Whyalla Weather History for the Previous 24 Hours

Scroll right to see more
 ConditionsComfort  
Time TempWeatherWind HumidityBarometerVisibility
6:30 pm
Sun, Mar 24
81 °FWarm.14 mph45%29.75 "HgN/A
6:00 pm82 °FOvercast.17 mph46%29.73 "HgN/A
3:30 pm81 °FWarm.18 mph52%29.75 "HgN/A
3:00 pm81 °FOvercast.20 mph55%29.75 "HgN/A
12:30 pm76 °FMild.14 mph69%29.82 "HgN/A
12:00 pm73 °FOvercast.9 mph74%29.83 "HgN/A
9:30 am68 °FMild.5 mph91%29.84 "HgN/A
9:00 am67 °FOvercast.6 mph92%29.84 "HgN/A
6:30 am65 °FMild.6 mph92%29.83 "HgN/A
6:00 am65 °FOvercast.3 mph93%29.80 "HgN/A
3:30 am65 °FMild.3 mph91%29.84 "HgN/A
3:00 am65 °FFog.5 mph91%29.85 "HgN/A
2:30 am65 °FMild.6 mph90%29.86 "HgN/A
12:30 am67 °FMild.1 mph92%29.88 "HgN/A
12:00 am67 °FOvercast.1 mph92%29.89 "HgN/A
11:30 pm
Sat, Mar 23
68 °FMild.No wind91%29.90 "HgN/A
9:30 pm68 °FMild.3 mph83%29.92 "HgN/A
9:00 pm68 °FOvercast.3 mph84%29.92 "HgN/A
Weather by CustomWeather, © 2019

See weather overview